Weather History for Budapest Ferihegy, Hungary

Change the Weather History Date:

Tuesday, April 1, 2014

  Actual Average Record
Temperature  
Mean Temperature 55 °F -  
Max Temperature 66 °F 59 °F 69 °F (1998)
Min Temperature 44 °F 39 °F 30 °F (2003)
Degree Days  
Heating Degree Days 10    
Growing Degree Days 5 (Base 50)    
Moisture  
Dew Point 35 °F    
Average Humidity 47    
Maximum Humidity 66    
Minimum Humidity 28    
Precipitation  
Precipitation 0.00 in - - ()
Sea Level Pressure  
Sea Level Pressure 29.87 in    
Wind  
Wind Speed 6 mph ()    
Max Wind Speed 13 mph    
Max Gust Speed -    
Averages and records for this station are not official NWS values.
T = Trace of Precipitation, MM = Missing Value Source: Averaged Metar Reports

Daily Weather History Graph

Daily Weather History Graph

Search for Another Location

Airport:

Trip Planner

Search our weather history database for the weather conditions in past years. The results will help you decide how hot, cold, wet, or windy it might be!

Date:

Astronomy

Apr. 01, 2014 Rise Set
Actual Time 6:22 AM CEST 7:12 PM CEST
Civil Twilight 5:51 AM CEST 7:43 PM CEST
Nautical Twilight 5:14 AM CEST 8:20 PM CEST
Astronomical Twilight 4:35 AM CEST 8:59 PM CEST
Moon 7:06 AM CEST (4/1) 9:25 PM CEST (4/1)
Length of Visible Light 13h 52m
Length of Day
12h 49m
Waxing Crescent, 3% of the Moon is Illuminated
Apr 1
Waxing Crescent
Apr 7
First Quarter
Apr 15
Full
Apr 22
Last Quarter
Apr 29
New

Hourly Weather History & Observations

Time (CEST) Temp. Windchill Dew Point Humidity Pressure Visibility Wind Dir Wind Speed Gust Speed Precip Events Conditions
12:00 AM 55.4 °F - 39.2 °F 54% 29.80 in - Variable 1.2 mph - N/A   Clear
12:30 AM 55.4 °F - 39.2 °F 54% 29.80 in - West 12.7 mph - N/A   Clear
1:00 AM 53.6 °F - 39.2 °F 58% 29.80 in - WNW 9.2 mph - N/A   Clear
1:30 AM 51.8 °F - 39.2 °F 62% 29.83 in - NW 5.8 mph - N/A   Clear
2:00 AM 51.8 °F - 39.2 °F 62% 29.83 in - NW 8.1 mph - N/A   Clear
2:30 AM 51.8 °F - 39.2 °F 62% 29.83 in - WNW 9.2 mph - N/A   Clear
3:00 AM 50.0 °F - 37.4 °F 62% 29.83 in - WNW 10.4 mph - N/A   Clear
3:30 AM 50.0 °F - 37.4 °F 62% 29.83 in - WNW 11.5 mph - N/A   Clear
4:00 AM 50.0 °F - 37.4 °F 62% 29.83 in - NW 8.1 mph - N/A   Clear
4:30 AM 50.0 °F - 35.6 °F 58% 29.83 in - Variable 3.5 mph - N/A   Clear
5:00 AM 48.2 °F - 35.6 °F 62% 29.86 in - Variable 3.5 mph - N/A   Clear
5:30 AM 46.4 °F 44.3 °F 35.6 °F 66% 29.86 in - NW 4.6 mph - N/A   Clear
6:00 AM 46.4 °F 45.2 °F 35.6 °F 66% 29.86 in - Variable 3.5 mph - N/A   Clear
6:30 AM 44.6 °F 40.7 °F 33.8 °F 66% 29.86 in - NW 6.9 mph - N/A   Clear
7:00 AM 46.4 °F 43.5 °F 35.6 °F 66% 29.86 in - NW 5.8 mph - N/A   Clear
7:30 AM 48.2 °F - 35.6 °F 62% 29.89 in - Variable 2.3 mph - N/A   Clear
8:00 AM 50.0 °F - 35.6 °F 58% 29.89 in - NW 4.6 mph - N/A   Clear
8:30 AM 51.8 °F - 37.4 °F 58% 29.89 in - NW 6.9 mph - N/A   Clear
9:00 AM 55.4 °F - 37.4 °F 51% 29.89 in - NNW 6.9 mph - N/A   Clear
9:30 AM 57.2 °F - 35.6 °F 44% 29.92 in - WNW 6.9 mph - N/A   Clear
10:00 AM 59.0 °F - 35.6 °F 42% 29.92 in - NW 6.9 mph - N/A   Clear
10:30 AM 60.8 °F - 33.8 °F 36% 29.92 in - NNW 10.4 mph - N/A   Clear
11:00 AM 60.8 °F - 33.8 °F 36% 29.92 in - NNW 8.1 mph - N/A   Clear
11:30 AM 62.6 °F - 32.0 °F 32% 29.92 in - West 9.2 mph - N/A   Clear
12:00 PM 62.6 °F - 32.0 °F 32% 29.92 in - West 8.1 mph - N/A   Clear
12:30 PM 62.6 °F - 32.0 °F 32% 29.89 in - West 8.1 mph - N/A   Clear
1:00 PM 64.4 °F - 33.8 °F 32% 29.89 in - WSW 6.9 mph - N/A   Clear
1:30 PM 64.4 °F - 33.8 °F 32% 29.89 in - West 9.2 mph - N/A   Clear
2:00 PM 64.4 °F - 35.6 °F 34% 29.89 in - West 8.1 mph - N/A   Clear
2:30 PM 64.4 °F - 33.8 °F 32% 29.86 in - NNW 10.4 mph - N/A   Clear
3:00 PM 66.2 °F - 35.6 °F 32% 29.86 in - NW 10.4 mph - N/A   Clear
3:30 PM 66.2 °F - 33.8 °F 30% 29.86 in - WNW 8.1 mph - N/A   Clear
4:00 PM 64.4 °F - 32.0 °F 30% 29.86 in - WNW 8.1 mph - N/A   Clear
4:30 PM 64.4 °F - 33.8 °F 32% 29.86 in - West 8.1 mph - N/A   Clear
5:00 PM 64.4 °F - 30.2 °F 28% 29.86 in - WNW 10.4 mph - N/A   Clear
5:30 PM 64.4 °F - 33.8 °F 32% 29.86 in - NW 11.5 mph - N/A   Clear
6:00 PM 62.6 °F - 35.6 °F 37% 29.86 in - NW 10.4 mph - N/A   Clear
6:30 PM 62.6 °F - 32.0 °F 32% 29.86 in - NW 11.5 mph - N/A   Clear
7:00 PM 59.0 °F - 33.8 °F 39% 29.86 in - WNW 10.4 mph - N/A   Clear
7:30 PM 59.0 °F - 33.8 °F 39% 29.86 in - West 5.8 mph - N/A   Clear
8:00 PM 57.2 °F - 32.0 °F 38% 29.86 in - WNW 8.1 mph - N/A   Clear
8:30 PM 57.2 °F - 33.8 °F 41% 29.89 in - Variable 3.5 mph - N/A   Clear
9:00 PM 53.6 °F - 33.8 °F 47% 29.89 in - Variable 3.5 mph - N/A   Clear
9:30 PM 53.6 °F - 33.8 °F 47% 29.89 in - Variable 2.3 mph - N/A   Clear
10:00 PM 53.6 °F - 33.8 °F 47% 29.89 in - Variable 2.3 mph - N/A   Clear
10:30 PM 50.0 °F - 33.8 °F 54% 29.89 in - Variable 3.5 mph - N/A   Clear
11:00 PM 46.4 °F 45.2 °F 32.0 °F 57% 29.89 in - Variable 3.5 mph - N/A   Clear
11:30 PM 46.4 °F - 33.8 °F 62% 29.89 in - Variable 2.3 mph - N/A   Clear